User: anonymous   Login
Location: Unspecified
(0.0000°N, 0.0000°E)
Time: 07:32:05
(UTC+00:00)
Language:

Mayak - Orbit

View from above orbital plane
View from above orbital plane
View from above satellite
View from above satellite

Ground track
Ground track

The orbit data is extracted from the following two-line orbital elements,

1 42830U 17042F   17290.58135311 +.00001165 +00000-0 +12352-3 0  9996
2 42830 097.6078 196.8616 0013120 287.2254 072.7528 14.90867742014183
Epoch (UTC): 17 October 2017 13:57:08
Eccentricity: 0.0013120
inclination: 97.6078°
perigee height: 586 km
apogee height: 604 km
right ascension of ascending node: 196.8616°
argument of perigee: 287.2254°
revolutions per day: 14.90867742
mean anomaly at epoch: 72.7528°
orbit number at epoch: 1418

The dashed part of the orbit path shows where the satellite is in the earth's shadow,  

DLR